UAL2051 KSFO-CYVR

Flight info

Callsign UAL2051
Flight time N/A
Altitude 40000
Route TRUKN2 DEDHD DCT RBL DCT PAE GRIZZ9
Aircraft B772/H-SDE2E3FGHIJ5LORVWXY/A1EDE9

Departure

Time N/A
Airport San Francisco International Airport (KSFO)

Arrival

Time 2026-04-30 18:49
Airport Vancouver International Airport (CYVR)
Time Latitude Longitude Altitude Speed Heading
2026-04-30 17:39 41.50614 -122.24291 40149 ft 475 kts 355°
2026-04-30 17:42 41.83622 -122.24453 40154 ft 477 kts 355°
2026-04-30 17:43 42.00215 -122.24534 40152 ft 476 kts 355°
2026-04-30 17:44 42.20088 -122.24632 40176 ft 477 kts 355°
2026-04-30 17:47 42.49912 -122.24781 40185 ft 476 kts 355°
2026-04-30 17:48 42.73124 -122.24898 40188 ft 477 kts 355°
2026-04-30 17:50 42.99586 -122.25032 40186 ft 478 kts 355°
2026-04-30 17:52 43.19476 -122.25133 40195 ft 477 kts 356°
2026-04-30 17:54 43.49346 -122.25288 40171 ft 478 kts 356°
2026-04-30 17:56 43.75888 -122.25426 40165 ft 479 kts 356°
2026-04-30 17:58 43.95850 -122.25530 40175 ft 479 kts 356°
2026-04-30 18:00 44.22379 -122.25670 40171 ft 478 kts 356°
2026-04-30 18:01 44.38954 -122.25758 40165 ft 477 kts 356°
2026-04-30 18:02 44.58841 -122.25864 40161 ft 476 kts 356°
2026-04-30 18:04 44.78684 -122.25972 40165 ft 476 kts 356°
2026-04-30 18:06 45.05061 -122.26115 40154 ft 476 kts 356°
2026-04-30 18:08 45.28154 -122.26241 40154 ft 475 kts 356°
2026-04-30 18:10 45.54518 -122.26387 40141 ft 474 kts 356°
2026-04-30 18:11 45.77566 -122.26516 40148 ft 474 kts 356°
2026-04-30 18:13 45.94025 -122.26608 40163 ft 474 kts 357°
2026-04-30 18:14 46.10490 -122.26701 40156 ft 474 kts 356°
2026-04-30 18:15 46.30271 -122.26814 40173 ft 474 kts 356°
2026-04-30 18:16 46.43470 -122.26889 40172 ft 474 kts 357°
2026-04-30 18:17 46.50075 -122.26927 40178 ft 475 kts 357°
2026-04-30 18:18 46.59486 -122.26981 40175 ft 474 kts 357°
2026-04-30 18:18 46.66071 -122.27020 40171 ft 475 kts 357°
2026-04-30 18:19 46.72653 -122.27058 40166 ft 475 kts 357°
2026-04-30 18:19 46.79229 -122.27096 40169 ft 474 kts 357°
2026-04-30 18:20 46.85839 -122.27135 40171 ft 474 kts 357°
2026-04-30 18:20 46.92404 -122.27173 40166 ft 475 kts 357°
2026-04-30 18:21 46.99040 -122.27212 40170 ft 475 kts 357°
2026-04-30 18:21 47.05641 -122.27250 40140 ft 475 kts 357°
2026-04-30 18:22 47.12205 -122.27289 40063 ft 475 kts 357°
2026-04-30 18:22 47.22128 -122.27347 39996 ft 476 kts 357°
2026-04-30 18:23 47.28674 -122.27384 39958 ft 466 kts 357°
2026-04-30 18:23 47.31885 -122.27401 39916 ft 451 kts 357°
2026-04-30 18:23 47.34980 -122.27419 39458 ft 445 kts 357°
2026-04-30 18:24 47.41199 -122.27460 37272 ft 456 kts 358°
2026-04-30 18:24 47.44389 -122.27480 36221 ft 462 kts 358°
2026-04-30 18:24 47.47614 -122.27499 35499 ft 463 kts 358°
2026-04-30 18:25 47.50889 -122.27518 35058 ft 457 kts 358°
2026-04-30 18:25 47.57325 -122.27557 34535 ft 466 kts 359°
2026-04-30 18:25 47.60598 -122.27576 34254 ft 465 kts 359°
2026-04-30 18:26 47.66960 -122.27612 32982 ft 459 kts 359°
2026-04-30 18:26 47.70196 -122.27631 31820 ft 467 kts 359°
2026-04-30 18:26 47.73462 -122.27651 30651 ft 473 kts 359°
2026-04-30 18:27 47.79990 -122.27689 29527 ft 460 kts 359°
2026-04-30 18:27 47.83147 -122.27708 29069 ft 453 kts 359°
2026-04-30 18:28 47.89370 -122.27746 27702 ft 449 kts 359°
2026-04-30 18:28 47.92495 -122.27991 27015 ft 447 kts 353°
2026-04-30 18:28 47.98545 -122.29641 25800 ft 440 kts 349°
2026-04-30 18:29 48.01520 -122.30505 25181 ft 437 kts 350°
2026-04-30 18:29 48.10363 -122.33072 23358 ft 430 kts 351°
2026-04-30 18:30 48.16186 -122.34766 22215 ft 423 kts 350°
2026-04-30 18:30 48.21912 -122.36433 21049 ft 418 kts 350°
2026-04-30 18:31 48.24765 -122.37265 20447 ft 415 kts 350°
2026-04-30 18:31 48.30383 -122.38907 19303 ft 409 kts 350°
2026-04-30 18:32 48.35933 -122.40531 18064 ft 405 kts 350°
2026-04-30 18:32 48.38672 -122.41335 17479 ft 402 kts 350°
2026-04-30 18:32 48.44091 -122.42927 16353 ft 395 kts 350°
2026-04-30 18:33 48.46766 -122.43713 15776 ft 392 kts 350°
2026-04-30 18:33 48.52099 -122.45285 14624 ft 386 kts 350°
2026-04-30 18:33 48.54727 -122.46061 14039 ft 384 kts 350°
2026-04-30 18:34 48.57310 -122.46824 13493 ft 380 kts 350°
2026-04-30 18:34 48.62469 -122.48350 12408 ft 374 kts 349°
2026-04-30 18:34 48.64985 -122.49096 11860 ft 371 kts 349°
2026-04-30 18:35 48.67516 -122.49864 11305 ft 368 kts 347°
2026-04-30 18:35 48.69894 -122.51168 10732 ft 365 kts 333°
2026-04-30 18:35 48.71987 -122.53265 10148 ft 361 kts 319°
2026-04-30 18:36 48.75183 -122.58824 9650 ft 335 kts 308°
2026-04-30 18:36 48.76585 -122.61506 9585 ft 320 kts 308°
2026-04-30 18:36 48.79185 -122.66554 9551 ft 290 kts 306°
2026-04-30 18:37 48.80406 -122.68936 9479 ft 279 kts 306°
2026-04-30 18:37 48.81580 -122.71233 9207 ft 276 kts 307°
2026-04-30 18:37 48.82760 -122.73541 8870 ft 276 kts 306°
2026-04-30 18:37 48.83926 -122.75826 8558 ft 275 kts 307°
2026-04-30 18:38 48.85097 -122.78122 8260 ft 273 kts 307°
2026-04-30 18:38 48.86244 -122.80373 7937 ft 273 kts 306°
2026-04-30 18:38 48.87420 -122.82673 7410 ft 281 kts 308°
2026-04-30 18:38 48.88936 -122.84511 6996 ft 283 kts 335°
2026-04-30 18:39 48.90817 -122.85409 6693 ft 281 kts 345°
2026-04-30 18:39 48.92721 -122.86128 6357 ft 280 kts 346°
2026-04-30 18:39 48.94595 -122.86825 6056 ft 278 kts 346°
2026-04-30 18:39 48.96465 -122.87521 5754 ft 276 kts 346°
2026-04-30 18:40 48.98331 -122.88216 5432 ft 275 kts 346°
2026-04-30 18:40 49.00163 -122.88900 5363 ft 263 kts 346°
2026-04-30 18:40 49.01918 -122.89556 5210 ft 258 kts 347°
2026-04-30 18:40 49.03641 -122.90201 4956 ft 256 kts 347°
2026-04-30 18:41 49.05365 -122.90847 4658 ft 255 kts 347°
2026-04-30 18:41 49.07095 -122.91497 4361 ft 255 kts 347°
2026-04-30 18:41 49.08816 -122.92146 4086 ft 254 kts 347°
2026-04-30 18:41 49.10535 -122.92797 3787 ft 254 kts 347°
2026-04-30 18:42 49.12217 -122.93545 3488 ft 253 kts 335°
2026-04-30 18:42 49.15087 -122.96725 2802 ft 257 kts 322°
2026-04-30 18:42 49.16473 -122.98470 2431 ft 260 kts 322°
2026-04-30 18:45 49.20263 -123.16960 2412 ft 177 kts 280°
2026-04-30 18:45 49.20763 -123.18643 2437 ft 178 kts 319°
2026-04-30 18:45 49.21910 -123.19424 2658 ft 192 kts 353°
2026-04-30 18:46 49.23270 -123.19659 2950 ft 198 kts 355°
2026-04-30 18:46 49.24598 -123.19529 2979 ft 183 kts 22°
2026-04-30 18:46 49.25552 -123.18407 2915 ft 170 kts 56°
2026-04-30 18:46 49.25918 -123.16832 2857 ft 152 kts 88°
2026-04-30 18:47 49.25639 -123.15289 2660 ft 152 kts 120°
2026-04-30 18:47 49.25067 -123.14002 2463 ft 140 kts 123°
2026-04-30 18:47 49.24534 -123.12779 2196 ft 141 kts 124°
2026-04-30 18:47 49.23796 -123.11805 1975 ft 142 kts 154°
2026-04-30 18:48 49.22807 -123.11507 1587 ft 149 kts 180°
2026-04-30 18:48 49.21810 -123.11809 1245 ft 148 kts 202°
2026-04-30 18:48 49.20962 -123.12672 973 ft 146 kts 227°
2026-04-30 18:48 49.20351 -123.13870 652 ft 143 kts 240°
2026-04-30 18:49 49.20024 -123.15256 307 ft 136 kts 265°
2026-04-30 18:49 49.20122 -123.16625 27 ft 125 kts 280°
2026-04-30 18:49 49.20250 -123.17728 25 ft 80 kts 280°
2026-04-30 18:49 49.20304 -123.18221 25 ft 21 kts 274°
2026-04-30 18:50 49.20305 -123.18450 25 ft 22 kts 262°